Medicine Lodge, KS

10:58 AM CST on December 12, 2019 (GMT -0600)
Medicine Lodge

Weather History for KP28 - October, 2019

Change the Weather History Date:

Wednesday, October 2, 2019

  Actual Average Record
Temperature  
Mean Temperature 70 °F 64 °F  
Max Temperature 82 °F 77 °F 97 °F (1997)
Min Temperature 57 °F 52 °F 33 °F (1975)
Degree Days  
Heating Degree Days 0 4  
Month to date heating degree days 0 8  
Since 1 July heating degree days 0 42  
Cooling Degree Days 5 3  
Month to date cooling degree days 20 6  
Year to date cooling degree days 1834 1737  
Growing Degree Days 20 (Base 50)    
Moisture  
Dew Point 65 °F    
Average Humidity 84    
Maximum Humidity 100    
Minimum Humidity 67    
Precipitation  
Precipitation 0.02 in 0.09 in 1.32 in (1959)
Month to date precipitation 0.02 0.18  
Year to date precipitation 28.60 22.63  
Snow  
Snow 0.00 in 0.00 in - ()
Month to date snowfall 0.0 0.0  
Since 1 July snowfall 0.0 0.0  
Since 1 September snowfall 0.0 0.0  
Snow Depth 0.00 in    
Sea Level Pressure  
Sea Level Pressure 29.90 in    
Wind  
Wind Speed 10 mph (NNE)    
Max Wind Speed 21 mph    
Max Gust Speed 31 mph    
T = Trace of Precipitation, MM = Missing Value Source: NWS Daily Summary

Daily Weather History Graph

Daily Weather History Graph

Search for Another Location

Airport or City:

Astronomy

Oct. 02, 2019 Rise Set
Actual Time 7:30 AM CDT 7:16 PM CDT
Civil Twilight 7:04 AM CDT 7:42 PM CDT
Nautical Twilight 6:34 AM CDT 8:12 PM CDT
Astronomical Twilight 6:03 AM CDT 8:42 PM CDT
Moon 11:52 AM CDT (10/2) 10:17 PM CDT (10/2)
Length of Visible Light 12h 37m
Length of Day
11h 45m
Waxing Crescent, 20% of the Moon is Illuminated
Oct 2
Waxing Crescent
Oct 5
First Quarter
Oct 13
Full
Oct 21
Last Quarter
Oct 27
New

Hourly Weather History & Observations

Time (CDT) Temp. Heat Index Dew Point Humidity Pressure Visibility Wind Dir Wind Speed Gust Speed Precip Events Conditions
12:56 AM 71.1 °F - 69.1 °F 93% 29.83 in - ENE 3.5 mph - N/A   Unknown
1:56 AM 72.0 °F - 69.1 °F 91% 29.83 in - ENE 6.9 mph - N/A   Unknown
2:56 AM 71.1 °F - 69.1 °F 93% 29.84 in - ENE 4.6 mph - N/A   Unknown
4:56 AM 71.1 °F - 69.1 °F 93% 29.83 in - East 6.9 mph - N/A   Unknown
5:56 AM 70.0 °F - 69.1 °F 97% 29.86 in - ESE 3.5 mph - N/A   Unknown
6:56 AM 70.0 °F - 68.0 °F 93% 29.84 in - SE 8.1 mph - N/A   Unknown
7:56 AM 70.0 °F - 68.0 °F 93% 29.87 in - SSW 6.9 mph - N/A   Unknown
8:56 AM 73.0 °F - 66.9 °F 81% 29.89 in - SW 9.2 mph - N/A   Unknown
9:56 AM 75.9 °F - 68.0 °F 76% 29.88 in - SW 6.9 mph - N/A   Unknown
10:56 AM 78.1 °F - 69.1 °F 74% 29.86 in - South 10.4 mph - N/A   Unknown
11:56 AM 81.0 °F 83.8 °F 68.0 °F 65% 29.88 in - SSW 11.5 mph 19.6 mph N/A   Unknown
12:56 PM 75.0 °F - 71.1 °F 87% 29.89 in - West 12.7 mph - N/A   Unknown
1:56 PM 73.0 °F - 70.0 °F 90% 29.87 in - NNW 6.9 mph - 0.01 in   Unknown
2:56 PM 75.0 °F - 69.1 °F 82% 29.87 in - NNW 9.2 mph - N/A   Unknown
4:56 PM 66.9 °F - 62.1 °F 84% 29.90 in - North 16.1 mph - N/A   Unknown
5:56 PM 64.9 °F - 60.1 °F 84% 29.90 in - North 17.3 mph 26.5 mph N/A   Unknown
6:56 PM 62.1 °F - 57.9 °F 86% 29.97 in - North 11.5 mph 20.7 mph N/A   Unknown
7:56 PM 61.0 °F - 57.0 °F 87% 29.96 in - North 12.7 mph - N/A   Unknown
8:56 PM 60.1 °F - 57.0 °F 90% 29.98 in - North 11.5 mph - N/A   Unknown
9:56 PM 60.1 °F - 55.9 °F 86% 30.00 in - North 11.5 mph 19.6 mph N/A   Unknown
10:56 PM 59.0 °F - 55.0 °F 87% 30.01 in - North 15.0 mph 23.0 mph N/A   Unknown
11:56 PM 57.9 °F - 54.0 °F 87% 30.02 in - North 15.0 mph 23.0 mph N/A   Unknown